Regional Weather Roundup
Issued by NWS

Home | Current Version | Previous Version | Text Only | Print | Product List | Glossary On
Versions: 1 2 3 4 5 6 7 8 9 10 11 12 13 14 15 16 17 18 19 20 21 22 23 24 25 26 27 28 29 30 31 32 33 34 35 36 37 38 39 40 41 42 43 44 45 46 47 48 49 50
000
ASUS43 KTOP 232208
RWRKS

WEATHER ROUNDUP FOR KANSAS
NATIONAL WEATHER SERVICE GOODLAND KS
500 PM CDT FRI SEP 23 2016

NOTE:  "FAIR" INDICATES FEW OR NO CLOUDS BELOW 12,000 FEET WITH NO
SIGNIFICANT WEATHER AND/OR OBSTRUCTIONS TO VISIBILITY.

KSZ001>006-013>018-027>032-041>047-232300-
NORTHWEST KANSAS

CITY           SKY/WX    TMP DP  RH WIND       PRES   REMARKS
GOODLAND       SUNNY     87  52  29 S32G48    29.78S
HAYS           MOSUNNY   91  54  27 S26G32    29.84S
HILL CITY      SUNNY     88  56  33 S18G29    29.82F
RUSSELL        MOSUNNY   89  59  36 SE22G32   29.85F
$$

KSZ061>065-074>080-084>089-232300-
SOUTHWEST KANSAS

CITY           SKY/WX    TMP DP  RH WIND       PRES   REMARKS
DODGE CITY     MOSUNNY   88  55  32 S26G36    29.88S
ELKHART          N/A     88  57  34 SE23        N/A
GARDEN CITY    SUNNY     88  54  31 SE26G38   29.84S
GREAT BEND     SUNNY     90  55  31 S24G30    29.86S
LIBERAL        SUNNY     88  55  33 S24G30    29.87S
PRATT          SUNNY     86  55  34 S26       29.90S
$$

KSZ066>073-081>083-090>101-232300-
SOUTHEAST KANSAS

CITY           SKY/WX    TMP DP  RH WIND       PRES   REMARKS
CHANUTE        SUNNY     87  64  46 SE15      29.96F
COFFEYVILLE    MOSUNNY   89  64  43 SE10      29.95F
HUTCHINSON     MOSUNNY   89  60  37 S23G30    29.90F
MEDICINE LODGE   N/A     89  59  36 S14G28    29.87F
NEWTON         MOSUNNY  N/A N/A N/A S15       29.94S
PARSONS        SUNNY     88  63  43 SE8       29.97F
WICHITA INTL   MOSUNNY   87  62  43 SE17G24   29.91F
WICHITA JABRA  LGT RAIN  86  63  45 SE17G25   29.92F
WICHITA MCCONL SUNNY     88  62  41 S18       29.92F
WINFIELD       MOSUNNY   89  62  40 S14       29.93F
$$

KSZ007>012-019>026-033>040-048>060-102>105-232300-
NORTHEAST KANSAS

CITY           SKY/WX    TMP DP  RH WIND       PRES   REMARKS
CONCORDIA      SUNNY     88  63  43 S20       29.90S
EMPORIA        SUNNY     85  62  46 SE13G23   29.95F
LAWRENCE       SUNNY     88  63  43 SE12      29.96S
MANHATTAN      MOSUNNY   88  65  46 S14G24    29.92S
MARYSVILLE     MOSUNNY   88  63  42 S16       29.92F
OLATHE IND     SUNNY     86  63  45 SE13      29.99S
OLATHE EXE     SUNNY     84  64  50 S13       29.99S
SALINA         MOSUNNY   89  64  43 S21G26    29.89F
TOPEKA BILLARD SUNNY     88  64  44 S10       29.95S
TOPEKA FORBES  MOSUNNY   89  64  43 S15       29.96S
$$




USA.gov is the U.S. government's official web portal to all federal, state and local government web resources and services.